Regional Weather Roundup
Issued by NWS Jackson, KY

Home | Current Version | Previous Version | Graphics & Text | Print | Product List | Glossary On
Versions: 1 2 3 4 5 6 7 8 9 10 11 12 13 14 15 16 17 18 19 20 21 22 23 24 25 26 27 28 29 30 31 32 33 34 35 36 37 38 39 40 41 42 43 44 45 46 47 48 49 50
000
ASUS43 KJKL 291019
RWRJKL

EAST KENTUCKY HOURLY WEATHER ROUNDUP
NATIONAL WEATHER SERVICE JACKSON KY
500 AM EST THU JAN 29 2015

NOTE: "FAIR" INDICATES FEW OR NO CLOUDS BELOW 12,000 FEET WITH
NO SIGNIFICANT WEATHER AND/OR OBSTRUCTIONS TO VISIBILITY.

* THESE REPORTS ARE NOT UNDER NWS QUALITY CONTROL AND MAY NOT
  REPORT WEATHER SUCH AS PRECIPITATION AND FOG.

KYZ079-080-083-085-087-088-110-112-115-119-120-291100
...EASTERN KENTUCKY...

CITY           SKY/WX    TMP DP  RH WIND       PRES   REMARKS
JACKSON        MOCLDY    32  18  56 S5        30.07F WCI  27
LONDON         MOCLDY    38  17  42 S9        30.09F WCI  31
SOMERSET*      MOCLDY    36  18  48 S5        30.10S WCI  32
MONTICELLO*    PTCLDY    44  19  37 S16G22    30.09F
MIDDLESBORO*   MOCLDY    33  22  65 S5        30.17F WCI  28
HARLAN APT*    PTSUNNY   36  19  51 CALM      30.14F
HAZARD APT*    SUNNY     32  21  64 CALM      30.08
BLACK MTN*       N/A     32  18  55 SW20        N/A  WCI  20
PIKEVILLE APT* CLEAR     36  16  44 SE9       30.08F WCI  29
BIG SANDY*     PTSUNNY   35  19  51 SE7       30.09F WCI  29
MOREHEAD APT*  PTSUNNY   34  19  55 SE8       30.06F WCI  27
ASHLAND*       CLEAR     28  23  80 E3        30.07F
$$

KYZ035-036-041-042-044-050-067-078-099-291100
...CENTRAL KENTUCKY...

CITY           SKY/WX    TMP DP  RH WIND       PRES   REMARKS
MT STERLING*   CLOUDY    36  21  55 SW9       30.05F WCI  29
FLEMING/MASON* CLOUDY    34  21  59 S13G18    30.03F WCI  25
DANVILLE*      MOCLDY    36  19  51 S9        30.05F WCI  29
RICHMOND*      MOCLDY    39  16  38 S15G21    30.05F WCI  31
LEXINGTON      MOCLDY    36  19  50 S15       30.01F WCI  27
FRANKFORT      CLOUDY    37  18  46 S9        29.99F WCI  30
$$

KYZ091>093-OHZ055-061-077-WVZ005-015-034-035-042-291100
...SOUTHERN OHIO/WEST VIRGINIA...

CITY           SKY/WX    TMP DP  RH WIND       PRES   REMARKS
COVINGTON      CLOUDY    36  21  54 S16       29.95F WCI  26
COLUMBUS       CLOUDY    28  17  63 SE10      30.01F WCI  19
DAYTON         CLOUDY    34  22  61 S16       29.92F WCI  24
WILMINGTON     MOCLDY    32  19  58 S14       29.96F WCI  22
HUNTINGTON     MOCLDY    24  20  84 SE3       30.08F
CHARLESTON     PTCLDY    22  19  89 CALM      30.11F
PINEVILLE*     PTCLDY    24  24  96 MISG      30.20F
BECKLEY        CLEAR     29  13  51 SE10      30.12F WCI  20
BLUEFIELD      CLEAR     33  13  43 SE7       30.14F WCI  27
$$

VAZ002-007-008-TNZ017-027-036-066-071-291100
...SOUTHWEST VIRGINIA/EAST TENNESSEE...

CITY           SKY/WX    TMP DP  RH WIND       PRES   REMARKS
WISE*          MOCLDY    36  12  38 SW8       30.11F WCI  29
JONESVILLE*    PTSUNNY   23  23 100 CALM      30.21F
ABINGDON*      PTCLDY    31  20  64 E7        30.17F WCI  24
BRISTOL        PTCLDY    25  20  81 CALM      30.20F
OAK RIDGE      PTCLDY    30  23  75 CALM      30.21F
CROSSVILLE     MOCLDY    40  18  41 S9G17     30.14F WCI  34
NASHVILLE      MOCLDY    46  27  47 SE8       30.07F
$$

...KEY TO REMARKS...
VSB - VISIBILITY IN MILES
WCI - WIND CHILL INDEX
HX  - HEAT INDEX

$$



USA.gov is the U.S. government's official web portal to all federal, state and local government web resources and services.